SCP
0 0 0 0 0 0 0 0 0 0 0 0 0 0 0 0 0 0 0 0 0 0 0 0 0 0 0 0 0 0 0 0 0 0 0 0 0 0 0 0 0 0 0
0 0 0 0 0 0 0 0 0 0 0 0 0 0 0 0 0 0 0 0 0 0 0 0 0 0 0 0 0 0 0 0 0 0 0 0 0 0 0 0 0 0 0
0 0 0 0 0 0 0 0 0 0 0 0 0 0 0 0 0 0 0 0 0 0 0 0 0 0 0 0 0 0 0 0 0 0 0 0 0 0 0 0 0 0 0
0 0 0 0 0 0 0 0 0 0 0 0 0 0 0 0 0 0 0 0 0 0 0 0 0 0 0 0 0 0 0 0 0 0 0 0 0 0 0 0 0 0 0
0 0 0 0 0 0 0 0 0 0 0 0 0 0 0 0 0 0 0 0 0 0 0 0 0 0 0 0 0 0 0 0 0 0 0 0 0 0 0 0 0 0 0
0 0 0 0 0 0 0 0 0 0 0 0 0 0 0 0 0 0 0 0 0 0 0 0 0 0 0 0 0 0 0 0 0 0 0 0 0 0 0 0 0 0 0
0 0 0 0 0 0 0 0 0 0 0 0 0 0 0 0 0 0 0 0 0 0 0 0 0 0 0 0 0 0 0 0 0 0 0 0 0 0 0 0 0 0 0
0 0 0 0 0 0 0 0 0 0 0 0 0 0 0 0 0 0 0 0 0 0 0 0 0 0 0 0 0 0 0 0 0 0 0 0 0 0 0 0 0 0 0
0 0 0 0 0 0 0 0 0 0 0 0 0 0 0 0 0 0 0 0 0 0 0 0 0 0 0 0 0 0 0 0 0 0 0 0 0 0 0 0 0 0 0
0 0 0 0 0 0 0 0 0 0 0 0 0 0 0 0 0 0 0 0 0 0 0 0 0 0 0 0 0 0 0 0 0 0 0 0 0 0 0 0 0 0 0
0 0 0 0 0 0 0 0 0 0 0 0 0 0 0 0 0 0 0 0 0 0 0 0 0 0 0 0 0 0 0 0 0 0 0 0 0 0 0 0 0 0 0
0 0 0 0 0 0 0 0 0 0 0 0 0 0 0 0 0 0 0 0 0 0 0 0 0 0 0 0 0 0 0 0 0 0 0 0 0 0 0 0 0 0 0
0 0 0 0 0 0 0 0 0 0 0 0 0 0 0 0 0 0 0 0 0 0 0 0 0 0 0 0 0 0 0 0 0 0 0 0 0 0 0 0 0 0 0
0 0 0 0 0 0 0 0 0 0 0 0 0 0 0 0 0 0 0 0 0 0 0 0 0 0 0 0 0 0 0 0 0 0 0 0 0 0 0 0 0 0 0
0 0 0 0 0 0 0 0 0 0 0 0 0 0 0 0 0 0 0 0 0 0 0 0 0 0 0 0 0 0 0 0 0 0 0 0 0 0 0 0 0 0 0
0 0 0 0 0 0 0 0 0 0 0 0 0 0 0 0 0 0 0 0 0 0 0 0 0 0 0 0 0 0 0 0 0 0 0 0 0 0 0 0 0 0 0
0 0 0 0 0 0 0 0 0 0 0 0 0 0 0 0 0 0 0 0 0 0 0 0 0 0 0 0 0 0 0 0 0 0 0 0 0 0 0 0 0 0 0
0 0 0 0 0 0 0 0 0 0 0 0 0 0 0 0 0 0 0 0 0 0 0 0 0 0 0 0 0 0 0 0 0 0 0 0 0 0 0 0 0 0 0
0 0 0 0 0 0 0 0 0 0 0 0 0 0 0 0 0 0 0 0 0 0 0 0 0 0 0 0 0 0 0 0 0 0 0 0 0 0 0 0 0 0 0
0 0 0 0 0 0 0 0 0 0 0 0 0 0 0 0 0 0 0 0 0 0 0 0 0 0 0 0 0 0 0 0 0 0 0 0 0 0 0 0 0 0 0
0 0 0 0 0 0 0 0 0 0 0 0 0 0 0 0 0 0 0 0 0 0 0 0 0 0 0 0 0 0 0 0 0 0 0 0 0 0 0 0 0 0 0
0 0 0 0 0 0 0 0 0 0 0 0 0 0 0 0 0 0 0 0 0 0 0 0 0 0 0 0 0 0 0 0 0 0 0 0 0 0 0 0 0 0 0
0 0 0 0 0 0 0 0 0 0 0 0 0 0 0 0 0 0 0 0 0 0 0 0 0 0 0 0 0 0 0 0 0 0 0 0 0 0 0 0 0 0 0
0 0 0 0 0 0 0 0 0 0 0 0 0 0 0 0 0 0 0 0 0 0 0 0 0 0 0 0 0 0 0 0 0 0 0 0 0 0 0 0 0 0 0
0 0 0 0 0 0 0 0 0 0 0 0 0 0 0 0 0 0 0 0 0 0 0 0 0 0 0 0 0 0 0 0 0 0 0 0 0 0 0 0 0 0 0
0 0 0 0 0 0 0 0 0 0 0 0 0 0 0 0 0 0 0 0 0 0 0 0 0 0 0 0 0 0 0 0 0 0 0 0 0 0 0 0 0 0 0
Wind_Speed
1 1 1 1 2 2 2 3 3 3 4 4 4 5 5 5 5 5 1 3 3 5 6 7 7 7 7 8 9 10 11 11 10 10 10 9 9 8 8 8 8 8 8
1 1 1 2 2 2 3 3 3 3 3 3 4 4 5 5 4 4 4 2 3 3 4 4 5 5 7 8 8 8 9 10 11 11 10 10 10 9 8 8 8 8 8
2 2 2 2 3 3 3 3 3 3 3 3 3 3 3 4 3 3 3 3 2 4 4 3 3 3 4 6 7 8 9 10 11 11 11 11 10 9 9 9 8 8 8
2 2 2 2 3 3 3 2 3 2 2 3 2 3 2 2 2 2 3 3 2 2 3 3 1 2 3 5 6 7 8 9 10 11 11 11 11 10 9 8 8 8 8
3 2 2 3 3 2 3 3 2 3 3 3 2 1 2 2 2 2 1 2 2 2 2 2 2 1 1 2 4 6 7 8 9 10 10 10 10 10 10 9 8 8 8
4 3 2 3 4 2 2 3 3 3 3 2 3 2 2 2 2 1 1 1 1 2 2 2 1 1 1 1 2 3 5 6 7 9 10 11 11 11 11 10 9 9 8
4 3 3 2 3 2 3 3 3 3 2 2 3 2 2 2 1 1 1 1 1 1 2 2 2 2 1 1 1 2 3 4 6 8 9 10 10 10 11 11 10 9 9
4 3 4 3 3 2 2 2 3 3 2 2 3 4 3 3 2 0 0 0 1 1 1 2 2 2 2 1 2 1 1 1 4 7 8 9 9 9 10 10 11 11 10
4 4 4 4 4 3 3 3 3 3 3 2 3 4 4 2 1 1 0 1 1 1 1 2 2 2 2 2 1 4 5 5 5 5 6 7 8 9 9 10 10 10 10
4 4 4 4 4 3 3 3 3 3 4 3 2 2 3 3 3 1 1 0 1 1 1 1 1 2 2 1 2 5 6 6 6 6 7 6 6 8 9 9 9 9 9
4 4 4 4 3 3 4 4 4 4 3 3 3 2 2 2 3 3 2 1 1 1 1 1 1 1 2 2 1 4 6 5 5 5 6 6 6 6 8 8 9 9 9
3 5 4 4 4 4 4 4 4 3 3 4 3 3 3 2 2 2 3 2 1 1 1 2 2 2 2 1 2 6 5 5 5 5 4 4 5 4 5 6 8 8 8
3 5 5 4 4 4 4 4 3 3 3 3 3 3 3 3 2 3 3 2 2 1 1 1 1 1 1 1 2 5 5 5 5 5 4 4 4 4 4 4 6 8 8
4 5 5 4 4 4 4 4 3 3 3 3 3 3 2 2 2 2 2 2 2 1 1 1 1 1 1 1 3 1 4 6 5 5 4 4 4 4 3 3 4 5 5
3 4 4 4 4 4 4 4 2 3 2 3 3 2 2 2 2 1 2 2 2 2 1 1 1 1 1 1 2 1 2 6 6 5 4 3 3 3 3 3 4 4 4
4 4 4 5 5 5 4 4 3 3 2 2 2 3 3 2 2 1 1 2 2 2 1 1 1 2 2 1 2 1 2 6 6 4 4 4 3 3 3 4 4 4 4
4 4 5 5 5 5 4 4 4 3 3 3 3 3 3 3 2 2 1 1 1 1 1 0 1 1 1 1 1 1 1 2 4 6 4 4 3 3 3 4 4 4 5
4 4 5 5 5 5 5 5 4 4 4 4 4 3 3 2 2 2 1 1 1 0 1 1 0 1 1 1 2 1 1 1 2 6 5 4 3 3 3 3 3 3 4
4 5 5 5 5 5 5 5 5 4 4 4 4 4 4 3 3 2 2 1 0 1 1 1 1 1 1 1 2 2 1 1 2 5 6 5 4 3 3 3 4 4 4
4 4 5 5 5 5 5 5 5 4 4 4 4 4 4 3 3 3 1 0 1 1 2 2 2 2 1 1 1 1 1 1 1 2 3 3 5 5 5 5 5 5 5
4 4 5 5 5 5 6 7 5 4 4 4 3 4 4 4 4 3 3 2 1 1 2 2 2 2 1 1 1 0 1 1 2 1 1 2 3 3 5 6 7 6 6
5 5 6 6 6 6 8 8 7 4 4 4 3 3 2 2 3 1 1 1 2 2 1 1 1 2 2 1 1 1 1 1 1 1 1 2 2 2 2 2 6 7 6
4 5 5 5 6 7 8 8 7 4 4 4 4 4 4 4 3 3 1 3 2 1 2 2 2 2 2 2 2 2 1 1 1 1 2 2 1 2 2 2 8 7 6
4 4 4 5 5 6 7 7 7 3 4 4 4 4 4 4 6 5 3 3 3 2 0 1 0 1 1 1 2 2 2 2 2 2 2 3 2 2 2 1 7 8 8
3 4 4 4 5 5 7 8 8 3 3 4 4 5 5 5 7 7 3 3 4 3 4 4 2 1 0 1 2 3 2 2 2 1 2 2 2 2 2 3 5 10 9
2 3 4 4 4 5 6 7 8 3 3 3 3 4 6 6 7 7 4 4 4 4 3 3 2 3 3 4 5 5 3 3 2 1 0 2 2 3 3 3 2 4 7
Wind_Direction
309 339 324 320 300 297 270 271 278 277 274 269 271 270 276 277 281 285 242 155 232 260 257 245 233 230 229 228 227 226 221 221 220 214 204 201 199 193 189 187 181 177 174
7 334 313 312 307 308 305 291 288 279 280 287 279 284 285 286 278 286 285 209 197 242 255 257 237 225 231 232 233 236 228 225 222 214 204 198 196 193 187 179 175 177 175
7 327 331 326 330 319 299 285 285 278 275 275 278 288 285 288 291 286 286 281 239 209 218 246 246 240 241 234 230 232 228 222 220 213 205 197 193 189 181 177 177 178 180
14 340 343 342 333 315 309 297 285 290 295 291 297 302 299 289 289 276 271 268 273 268 200 167 206 250 259 246 236 231 226 219 217 212 206 198 189 183 179 178 179 178 177
18 2 358 352 320 314 317 308 326 307 295 295 286 277 290 303 291 279 279 296 304 294 294 139 163 212 285 268 249 235 227 222 213 208 204 196 185 179 176 178 179 177 174
19 356 5 2 329 328 332 329 318 313 297 295 285 290 284 289 289 296 280 283 312 311 317 318 273 174 158 284 271 248 235 224 203 198 196 193 186 177 176 176 175 177 178
22 5 352 5 339 344 335 325 317 298 291 292 272 257 232 220 243 279 292 316 339 339 345 342 324 316 264 190 225 244 234 218 194 186 186 184 181 177 176 177 177 178 178
19 11 4 346 350 331 336 333 312 299 300 299 293 279 246 208 182 209 278 6 8 9 23 21 10 344 316 321 73 127 146 143 158 164 163 163 172 178 181 182 183 182 178
36 20 11 358 345 336 356 337 324 312 300 284 291 294 290 290 319 156 21 34 25 26 16 22 19 3 359 16 39 85 89 92 104 117 139 152 164 174 184 187 183 181 185
36 26 15 8 351 355 355 333 353 319 302 292 279 286 304 320 289 272 205 50 17 21 17 6 20 23 16 29 63 75 85 90 97 111 128 138 152 169 176 178 182 187 189
36 27 16 7 358 358 359 348 343 328 316 309 302 295 279 274 269 271 271 267 286 4 16 357 8 14 18 19 57 83 94 94 93 103 121 134 143 158 165 172 180 189 193
40 30 18 9 358 359 353 338 330 331 331 322 309 301 283 276 274 275 276 274 288 346 12 358 341 352 7 16 80 89 93 92 92 94 100 125 147 150 155 174 184 186 191
34 25 11 3 0 359 348 335 328 334 334 328 313 307 302 295 293 283 273 277 287 285 280 298 347 1 359 11 90 98 103 100 99 98 93 104 126 142 152 169 181 188 189
29 17 4 360 357 357 354 344 330 338 342 331 328 321 299 303 295 281 273 270 266 271 280 335 342 18 10 12 71 106 111 109 108 104 98 99 115 132 139 147 171 172 174
28 21 8 5 4 4 356 339 360 351 350 345 346 339 322 326 295 273 264 261 264 271 292 333 341 23 35 55 68 107 119 115 116 109 108 111 123 141 143 134 135 145 158
24 10 12 12 9 9 1 350 8 24 14 18 6 1 345 339 328 311 281 271 271 261 275 329 6 23 38 62 92 71 118 139 137 137 139 136 136 145 152 150 152 161 174
23 15 15 14 11 9 10 10 14 5 9 18 8 4 3 357 348 338 310 285 269 260 244 325 360 64 71 79 88 86 130 170 147 147 145 143 142 154 173 174 177 183 187
25 25 22 18 15 16 13 12 10 7 9 11 9 4 4 8 4 347 334 308 298 276 221 190 236 180 125 128 127 139 142 169 138 137 148 157 159 157 163 169 182 187 191
30 27 27 24 20 20 19 13 10 12 15 12 9 4 2 4 1 9 341 354 105 144 203 187 169 149 144 129 149 149 143 179 178 144 157 167 171 177 186 194 196 198 201
29 26 26 26 23 23 19 14 14 14 16 16 16 14 9 3 357 351 355 359 163 186 183 182 158 154 148 141 173 154 159 169 195 159 145 159 168 188 203 208 204 207 211
34 30 31 34 29 29 20 3 2 15 16 19 21 26 30 24 11 347 348 344 267 226 189 166 166 163 139 149 146 195 163 176 167 205 184 196 182 198 193 205 207 205 207
37 37 35 34 32 32 14 355 341 9 18 22 19 22 46 53 48 38 311 309 302 268 239 199 171 152 150 160 153 215 203 206 185 165 249 230 216 219 219 211 153 168 193
42 40 36 38 40 35 10 356 347 357 32 24 13 11 21 36 5 21 98 185 182 224 260 261 182 177 177 161 217 225 214 294 316 220 253 258 236 239 245 152 148 178 199
44 38 34 33 34 36 10 356 343 2 33 27 25 25 24 22 28 6 15 49 64 62 321 242 106 197 172 206 262 262 245 239 227 221 232 261 251 253 259 202 168 193 208
46 40 39 31 29 34 14 354 338 21 42 41 38 34 28 34 26 356 11 45 59 66 89 89 81 79 67 245 272 265 251 252 257 218 229 269 279 276 262 247 194 195 209
41 38 42 34 28 26 18 359 341 4 36 39 61 64 58 34 16 360 6 31 46 44 48 82 117 170 193 188 211 247 273 284 296 301 288 282 277 280 277 261 248 215 222